Appleton, WI

11:12 PM CDT on April 29, 2017 (GMT -0500)
Outagamie County Regional

Weather History for KATW - June, 2013

Change the Weather History Date:

Monday, June 17, 2013

  Actual Average Record
Temperature  
Mean Temperature 65 °F -  
Max Temperature 75 °F 76 °F 94 °F (1987)
Min Temperature 55 °F 55 °F 41 °F (1950)
Growing Degree Days 15 (Base 50)    
Moisture  
Dew Point 55 °F    
Average Humidity 76    
Maximum Humidity 94    
Minimum Humidity 53    
Precipitation  
Precipitation 0.00 in - - ()
Sea Level Pressure  
Sea Level Pressure 29.92 in    
Wind  
Wind Speed 5 mph (ENE)    
Max Wind Speed 16 mph    
Max Gust Speed 25 mph    
Visibility 10 miles    
Events Rain , Thunderstorm    
Averages and records for this station are not official NWS values.
T = Trace of Precipitation, MM = Missing Value Source: NWS Daily Summary

Daily Weather History Graph

Daily Weather History Graph

Search for Another Location

Airport or City:

Trip Planner

Search our weather history database for the weather conditions in past years. The results will help you decide how hot, cold, wet, or windy it might be!

Date:

Astronomy

Jun. 17, 2013 Rise Set
Actual Time 5:09 AM CDT 8:40 PM CDT
Civil Twilight 4:33 AM CDT 9:17 PM CDT
Nautical Twilight 3:44 AM CDT 10:05 PM CDT
Astronomical Twilight 2:42 AM CDT 11:07 PM CDT
Moon 2:07 PM CDT (6/17) 12:57 AM CDT (6/17)
Length of Visible Light 16h 44m
Length of Day
15h 30m
First Quarter, 60% of the Moon is Illuminated
Jun 17
First Quarter
Jun 23
Full
Jun 29
Last Quarter
Jul 8
New
Jul 15
First Quarter

Hourly Weather History & Observations

Time (CDT) Temp. Dew Point Humidity Pressure Visibility Wind Dir Wind Speed Gust Speed Precip Events Conditions
12:15 AM 62.6 °F 51.8 °F 68% 29.90 in 10.0 mi ESE 4.6 mph - N/A   Clear
12:35 AM 62.6 °F 51.8 °F 68% 29.91 in 10.0 mi Calm Calm - N/A   Scattered Clouds
12:55 AM 62.6 °F 51.8 °F 68% 29.90 in 10.0 mi SE 4.6 mph - N/A   Scattered Clouds
1:15 AM 60.8 °F 51.8 °F 72% 29.91 in 10.0 mi SE 3.5 mph - N/A   Clear
1:35 AM 60.8 °F 51.8 °F 72% 29.91 in 10.0 mi South 4.6 mph - N/A   Mostly Cloudy
1:55 AM 60.8 °F 51.8 °F 72% 29.91 in 10.0 mi South 4.6 mph - N/A   Scattered Clouds
2:15 AM 60.8 °F 51.8 °F 72% 29.90 in 10.0 mi Calm Calm - N/A   Clear
2:35 AM 60.8 °F 51.8 °F 72% 29.89 in 10.0 mi South 4.6 mph - N/A   Clear
2:55 AM 59.0 °F 51.8 °F 77% 29.89 in 10.0 mi SSW 3.5 mph - N/A   Clear
3:15 AM 59.0 °F 53.6 °F 82% 29.89 in 10.0 mi Calm Calm - N/A   Clear
3:35 AM 59.0 °F 51.8 °F 77% 29.90 in 10.0 mi Calm Calm - N/A   Clear
3:55 AM 55.4 °F 53.6 °F 94% 29.91 in 10.0 mi North 6.9 mph - N/A   Clear
4:15 AM 55.4 °F 53.6 °F 94% 29.91 in 10.0 mi North 4.6 mph - N/A   Clear
4:35 AM 57.2 °F 53.6 °F 88% 29.90 in 10.0 mi Calm Calm - N/A   Clear
4:55 AM 59.0 °F 53.6 °F 82% 29.89 in 10.0 mi ENE 3.5 mph - N/A   Clear
5:15 AM 59.0 °F 51.8 °F 77% 29.90 in 10.0 mi Calm Calm - N/A   Clear
6:45 AM 62.6 °F 57.2 °F 82% 29.87 in 10.0 mi Variable 3.5 mph - N/A   Scattered Clouds
7:45 AM 66.2 °F 55.4 °F 68% 29.88 in 10.0 mi Variable 3.5 mph - N/A   Scattered Clouds
8:45 AM 66.2 °F 55.4 °F 68% 29.92 in 10.0 mi NE 6.9 mph - N/A   Mostly Cloudy
9:45 AM 68.0 °F 55.4 °F 64% 29.91 in 10.0 mi Variable 4.6 mph - N/A   Mostly Cloudy
10:45 AM 71.6 °F 57.2 °F 60% 29.91 in - Variable 3.5 mph - N/A   Mostly Cloudy
11:45 AM 73.4 °F 59.0 °F 61% 29.91 in 10.0 mi Calm Calm - N/A   Scattered Clouds
12:45 PM 75.2 °F 57.2 °F 53% 29.90 in 10.0 mi Variable 4.6 mph - N/A   Scattered Clouds
1:45 PM 75.2 °F 59.0 °F 57% 29.90 in 10.0 mi NE 15.0 mph - N/A   Mostly Cloudy
2:50 PM 73.4 °F 59.0 °F 61% 29.92 in 10.0 mi WNW 16.1 mph 25.3 mph N/A   Mostly Cloudy
3:00 PM 73.4 °F 60.8 °F 65% 29.89 in 10.0 mi ENE 11.5 mph 20.7 mph N/A   Mostly Cloudy
3:45 PM 64.4 °F 60.8 °F 88% 29.93 in 10.0 mi NE 11.5 mph - N/A   Mostly Cloudy
4:45 PM 66.2 °F 59.0 °F 78% 29.92 in 10.0 mi ENE 15.0 mph 20.7 mph N/A Rain , Thunderstorm Light Thunderstorms and Rain
5:20 PM 62.6 °F 59.0 °F 88% 29.95 in 10.0 mi ENE 10.4 mph 18.4 mph N/A   Mostly Cloudy
5:45 PM 62.6 °F 60.8 °F 94% 29.94 in 10.0 mi ENE 8.1 mph - N/A   Mostly Cloudy
6:13 PM 64.4 °F 60.8 °F 88% 29.94 in 10.0 mi ENE 8.1 mph - N/A   Mostly Cloudy
6:53 PM 64.4 °F 59.0 °F 83% 29.95 in 10.0 mi East 9.2 mph - N/A   Mostly Cloudy
7:45 PM 62.6 °F 57.2 °F 82% 29.97 in 10.0 mi East 5.8 mph - N/A   Mostly Cloudy
8:45 PM 60.8 °F 57.2 °F 88% 29.98 in 10.0 mi Variable 4.6 mph - N/A   Scattered Clouds
9:45 PM 60.8 °F 55.4 °F 82% 30.00 in 10.0 mi NE 8.1 mph - N/A   Mostly Cloudy
10:45 PM 60.8 °F 57.2 °F 88% 30.02 in 10.0 mi NE 5.8 mph - N/A   Mostly Cloudy
11:15 PM 59.0 °F 53.6 °F 82% 30.03 in 10.0 mi ENE 8.1 mph - N/A   Overcast